Wind_Speed
32 33 33 33 33 32 32 31 31 30 30 30 30 30 30 31 31 30 29 29 29 28 29 28 28 27 27 27 26 26 25 25 25 25 25 25 25 24 24 24 24 24 24
33 33 33 33 33 33 33 32 32 32 31 30 31 31 32 32 32 31 31 31 30 30 30 31 30 30 30 29 29 28 28 28 27 27 27 27 27 27 27 27 26 26 26
33 33 33 34 34 34 34 34 33 33 33 33 32 33 33 33 33 33 33 32 32 32 32 32 32 32 32 32 31 31 31 30 31 30 30 29 29 29 29 29 29 28 28
33 34 34 35 35 35 35 35 34 33 34 35 34 34 35 34 34 35 35 34 34 34 34 34 34 34 34 34 34 34 33 33 33 34 33 32 32 32 31 32 31 31 30
34 34 34 35 36 36 36 36 37 36 36 36 36 36 36 36 35 36 36 36 36 36 36 36 36 36 36 36 36 36 36 35 35 35 35 35 35 34 34 34 33 33 32
34 34 34 35 36 37 37 37 37 37 37 37 37 37 37 37 36 36 36 37 37 37 38 38 38 38 38 38 38 38 38 37 36 37 37 37 37 37 37 36 36 35 34
34 35 35 35 36 37 37 37 37 37 37 37 37 37 37 38 37 37 37 38 39 39 39 40 40 40 40 40 40 40 40 39 38 39 38 38 38 38 38 38 37 37 37
35 35 36 36 37 37 38 38 38 38 38 39 39 38 38 38 37 37 37 38 39 39 39 40 41 41 42 41 41 42 41 41 41 41 40 39 39 39 39 39 39 38 38
35 36 37 38 38 38 38 38 38 38 39 39 39 40 39 39 39 39 39 39 39 39 40 40 41 42 42 43 42 43 43 43 43 43 43 42 41 41 40 40 41 40 40
35 36 36 37 38 38 38 38 39 39 40 40 41 41 42 41 42 40 41 41 41 42 42 42 43 43 43 44 44 45 45 45 45 45 44 45 45 44 43 43 42 43 42
37 36 37 37 37 38 39 39 39 40 40 41 41 41 41 41 42 42 42 42 42 43 43 44 44 44 45 45 45 46 46 46 46 46 46 46 46 46 45 45 45 45 45
37 37 38 38 38 39 39 40 40 40 41 41 40 40 40 41 41 42 42 42 42 42 43 43 44 44 45 46 46 46 47 47 47 47 47 48 47 47 46 46 46 46 47
36 38 38 38 39 39 39 39 40 40 41 41 42 42 42 42 42 42 43 42 42 42 43 43 43 44 45 46 46 47 47 48 49 49 49 49 49 49 49 48 47 47 48
36 37 37 38 38 39 39 40 40 41 41 41 41 42 42 43 43 43 44 44 43 43 43 43 44 44 45 46 47 47 48 49 49 50 50 50 51 51 50 49 48 49 49
37 37 38 38 39 39 40 41 40 40 40 41 42 42 43 43 43 44 44 45 45 45 45 45 46 47 47 47 48 48 49 49 50 50 51 51 51 51 51 50 50 50 50
38 38 38 39 40 40 41 40 39 40 41 41 42 43 43 43 44 45 46 45 46 47 47 46 47 48 49 49 49 49 50 50 50 51 51 51 50 50 50 50 50 50 51
37 38 38 38 39 39 39 39 39 40 41 42 42 43 43 44 45 46 46 46 47 47 47 47 47 48 49 49 49 50 51 51 51 51 51 51 51 50 51 51 51 51 51
38 38 38 38 39 39 39 39 39 40 41 42 42 43 44 44 45 45 46 46 46 47 47 47 47 48 48 49 49 49 50 51 51 51 51 52 52 52 52 52 51 52 52
38 38 38 39 38 38 38 39 39 38 39 40 41 42 42 43 44 44 44 45 46 46 46 46 46 47 47 48 48 48 48 49 50 51 51 52 52 53 53 53 52 52 52
39 39 39 38 38 38 38 39 39 39 39 40 40 41 42 42 42 44 44 45 46 46 46 46 46 46 47 47 48 48 49 50 50 50 50 51 52 52 52 53 52 52 52
39 39 38 38 38 38 39 39 40 39 39 40 40 41 42 43 43 44 45 46 46 46 46 46 46 47 47 48 48 49 49 49 49 49 50 50 50 51 52 52 52 52 52
39 39 38 38 39 39 39 40 40 40 40 40 40 41 42 43 44 45 45 45 46 46 47 47 47 48 48 48 49 49 49 48 48 48 49 49 49 50 51 52 52 53 53
39 39 39 39 38 38 39 39 40 41 41 41 41 42 43 44 45 45 45 46 47 47 46 47 47 47 47 47 48 49 49 48 48 47 47 47 48 49 49 50 51 52 53
38 39 39 39 39 39 39 40 40 40 40 41 41 41 42 42 42 43 43 44 45 45 46 46 46 46 47 47 48 48 48 47 47 46 47 47 48 49 49 50 52 52 53
38 38 39 39 39 39 39 40 40 39 39 40 39 39 39 40 41 42 42 43 44 45 45 45 45 45 46 46 46 46 46 46 46 47 48 48 48 49 50 51 51 52 52
39 39 39 39 39 39 39 39 39 39 39 39 39 39 39 39 40 41 41 42 43 44 45 44 44 45 45 46 46 46 47 47 48 48 48 49 49 49 49 49 50 51 51
Wind_Direction
253 253 252 250 249 248 248 249 251 253 254 252 251 250 249 247 247 246 248 249 250 251 249 248 249 249 250 251 254 255 257 258 260 263 265 266 268 270 271 272 273 276 277
253 252 251 249 249 248 249 250 251 252 254 252 250 249 249 248 248 248 248 249 250 252 252 250 250 251 251 252 254 255 257 258 260 261 263 264 267 269 271 272 272 273 275
253 251 250 249 249 248 249 250 250 252 253 252 250 249 248 248 247 248 248 249 251 252 253 252 251 252 252 253 254 256 257 259 259 260 261 263 266 268 268 270 272 272 273
252 250 249 249 249 248 248 249 250 252 253 252 251 250 247 248 248 248 249 250 252 253 254 254 253 253 253 254 255 256 258 259 259 260 261 263 264 266 267 268 270 271 272
253 252 250 249 250 249 249 249 250 252 253 252 251 251 249 248 249 249 249 251 253 254 255 255 255 255 255 256 257 258 259 260 260 261 261 262 263 264 265 267 268 269 271
255 254 252 250 250 250 250 250 251 252 252 251 252 251 250 248 250 250 251 252 253 255 256 256 257 257 257 258 259 259 260 260 260 261 262 262 264 265 266 267 268 268 269
256 256 255 254 252 252 252 252 251 252 252 252 252 252 252 251 250 251 252 253 253 255 256 256 257 257 257 258 259 259 259 260 261 262 263 264 265 266 267 267 268 268 269
256 257 256 255 255 253 252 252 252 252 253 253 253 254 252 252 250 252 253 254 255 256 257 257 257 257 257 258 259 259 260 260 262 263 264 265 265 266 267 268 268 269 269
257 256 256 256 255 254 254 254 253 253 253 254 254 254 253 252 252 252 253 253 254 255 257 258 258 258 258 257 258 259 260 261 263 263 264 265 265 266 267 268 268 269 270
258 258 257 257 256 255 254 255 255 254 254 255 255 255 254 254 254 252 254 254 255 256 257 258 258 259 259 259 259 260 261 261 262 263 265 265 266 266 267 267 268 268 269
259 260 259 259 258 256 255 254 255 256 255 255 255 255 255 255 255 255 255 255 256 257 259 259 260 260 260 260 260 260 260 260 261 263 264 265 265 265 266 268 268 268 268
260 260 260 259 258 257 256 255 255 257 256 256 255 255 256 255 255 255 256 256 257 258 259 261 261 261 260 260 261 261 260 261 262 262 263 263 265 266 267 267 268 268 269
261 260 260 259 258 257 257 257 256 258 258 257 256 256 256 256 256 256 257 257 258 259 260 261 261 261 261 261 262 262 262 262 262 263 263 264 264 265 266 267 268 268 269
262 261 260 259 257 257 257 257 258 257 257 257 257 256 256 257 257 258 258 258 259 260 261 262 262 261 262 263 263 263 263 264 264 264 264 264 265 265 266 267 268 268 269
262 263 262 261 259 259 259 259 258 256 256 257 257 257 257 257 258 259 260 260 260 260 260 262 262 262 264 265 265 265 265 265 265 265 265 264 265 266 266 266 267 268 269
263 264 263 261 261 261 261 259 257 256 256 257 257 258 259 259 259 260 261 261 262 262 262 262 263 263 265 265 266 266 266 266 266 265 264 265 266 266 266 266 266 268 268
263 263 262 262 262 262 260 259 258 257 256 257 259 259 259 259 260 261 262 263 264 264 264 264 264 264 265 266 267 267 268 267 266 265 264 265 266 267 266 266 267 267 267
264 263 263 263 263 262 261 260 260 258 258 258 259 259 258 260 261 262 263 263 264 265 265 265 265 266 266 267 268 269 269 268 268 267 266 266 266 266 266 266 267 267 267
264 264 264 263 263 263 263 262 261 260 260 259 260 260 261 261 262 262 264 265 265 265 266 266 266 267 268 268 269 269 269 269 269 269 268 267 266 265 265 265 266 267 268
265 265 264 264 263 264 263 262 263 262 261 261 262 261 261 262 263 262 264 265 266 266 266 266 266 267 268 269 269 269 269 269 270 270 270 269 267 266 265 265 266 267 268
265 265 264 264 265 265 264 264 263 264 263 264 263 263 263 263 264 265 266 266 267 267 268 268 267 267 268 269 269 270 270 270 270 270 270 270 269 267 266 266 266 267 268
264 264 264 265 265 265 264 264 264 264 264 264 264 264 264 265 266 267 267 267 267 267 268 268 268 268 268 268 269 270 270 271 271 270 270 270 269 268 267 266 266 266 267
263 263 264 265 265 265 265 266 266 266 266 266 265 266 265 266 267 268 268 267 267 268 269 269 269 269 270 269 270 270 270 271 272 271 270 270 269 269 268 267 267 268 268
263 264 264 265 265 266 266 267 267 267 267 267 268 269 268 268 269 269 269 269 270 270 270 270 270 271 270 270 270 270 270 271 271 270 270 271 271 270 269 269 268 268 268
264 264 265 266 266 267 267 268 268 267 267 268 268 269 269 269 270 270 270 270 271 271 271 272 272 272 271 270 270 270 270 270 271 271 272 272 272 271 270 269 268 267 267
264 265 265 266 266 267 267 268 267 267 268 268 268 269 269 270 270 270 270 271 271 271 270 270 272 272 271 271 271 271 272 272 272 272 273 273 272 272 270 269 269 267 267
Height
5785 5787 5789 5791 5794 5796 5799 5801 5803 5805 5806 5808 5810 5812 5814 5816 5818 5820 5822 5824 5825 5827 5828 5830 5832 5833 5835 5836 5837 5838 5839 5840 5841 5841 5842 5843 5843 5844 5844 5844 5844 5844 5844
5777 5779 5781 5784 5786 5789 5791 5794 5796 5798 5799 5801 5803 5805 5807 5809 5811 5813 5815 5817 5819 5821 5822 5824 5825 5827 5829 5830 5831 5832 5833 5834 5835 5836 5836 5837 5837 5838 5838 5838 5839 5839 5839
5769 5771 5774 5776 5779 5781 5784 5786 5788 5790 5792 5794 5796 5798 5800 5802 5804 5806 5808 5810 5812 5814 5816 5817 5819 5820 5822 5823 5825 5826 5827 5828 5829 5829 5830 5830 5831 5831 5832 5832 5832 5833 5833
5761 5763 5766 5768 5771 5773 5776 5778 5780 5782 5784 5786 5788 5790 5792 5794 5796 5798 5801 5803 5805 5807 5808 5810 5811 5813 5815 5816 5817 5818 5820 5821 5821 5822 5823 5823 5824 5824 5825 5825 5826 5826 5826
5753 5755 5758 5760 5763 5765 5767 5770 5772 5774 5776 5778 5780 5782 5784 5786 5788 5790 5793 5795 5797 5799 5800 5802 5804 5806 5807 5808 5809 5810 5811 5813 5813 5814 5815 5815 5816 5817 5817 5818 5818 5819 5819
5745 5747 5749 5752 5754 5757 5759 5761 5764 5766 5768 5769 5771 5773 5776 5778 5780 5782 5785 5787 5789 5790 5792 5794 5795 5797 5799 5800 5801 5802 5803 5804 5804 5805 5806 5807 5807 5808 5809 5809 5810 5811 5811
5738 5740 5742 5744 5746 5748 5750 5752 5755 5757 5759 5760 5763 5765 5768 5770 5772 5774 5776 5778 5780 5781 5783 5785 5786 5788 5789 5791 5792 5793 5794 5795 5795 5796 5797 5798 5798 5799 5800 5800 5801 5802 5803
5729 5731 5733 5735 5737 5739 5741 5743 5746 5748 5750 5751 5754 5756 5759 5762 5763 5766 5767 5769 5771 5772 5774 5775 5777 5778 5779 5781 5782 5783 5784 5785 5786 5787 5788 5789 5789 5790 5790 5791 5792 5793 5793
5721 5723 5725 5726 5728 5730 5732 5734 5736 5739 5741 5742 5744 5747 5750 5752 5755 5757 5759 5760 5761 5763 5764 5765 5767 5768 5769 5771 5772 5773 5774 5775 5776 5777 5778 5779 5780 5780 5781 5781 5782 5783 5784
5713 5714 5715 5717 5718 5720 5722 5725 5727 5729 5731 5733 5735 5737 5740 5742 5745 5747 5749 5750 5752 5753 5754 5755 5757 5757 5759 5760 5761 5763 5764 5765 5766 5767 5767 5768 5770 5770 5771 5771 5772 5773 5773
5704 5705 5706 5708 5709 5711 5713 5715 5717 5719 5721 5723 5726 5727 5729 5731 5733 5736 5738 5740 5741 5742 5743 5745 5746 5747 5748 5749 5750 5752 5753 5754 5755 5756 5756 5757 5758 5759 5760 5760 5761 5762 5763
5695 5696 5697 5698 5700 5701 5703 5705 5707 5709 5711 5713 5715 5717 5719 5721 5723 5725 5727 5729 5730 5732 5733 5734 5735 5736 5737 5738 5739 5740 5741 5742 5743 5744 5745 5746 5746 5747 5748 5749 5749 5750 5751
5686 5687 5688 5689 5690 5692 5693 5695 5697 5699 5701 5703 5705 5707 5709 5711 5713 5715 5716 5718 5720 5721 5722 5723 5723 5724 5725 5726 5727 5728 5729 5730 5731 5732 5733 5734 5735 5736 5736 5737 5737 5738 5739
5678 5678 5679 5680 5681 5683 5684 5685 5687 5689 5691 5692 5694 5696 5698 5700 5702 5704 5705 5707 5709 5711 5711 5712 5712 5713 5714 5715 5716 5716 5717 5718 5719 5720 5721 5721 5722 5723 5724 5725 5725 5726 5726
5669 5669 5670 5671 5672 5673 5674 5675 5677 5678 5680 5682 5684 5686 5688 5690 5691 5693 5694 5695 5697 5699 5701 5701 5701 5701 5702 5703 5703 5704 5704 5705 5706 5707 5707 5708 5709 5710 5711 5712 5713 5713 5713
5659 5660 5660 5661 5662 5663 5664 5665 5667 5668 5670 5672 5674 5676 5677 5678 5680 5681 5683 5683 5684 5686 5687 5689 5689 5689 5689 5690 5690 5691 5691 5692 5692 5693 5694 5695 5695 5696 5697 5698 5699 5700 5701
5650 5650 5651 5651 5652 5653 5654 5655 5656 5658 5659 5661 5663 5664 5666 5667 5668 5670 5670 5671 5672 5673 5674 5676 5676 5676 5676 5677 5677 5677 5677 5678 5679 5679 5680 5681 5682 5682 5683 5685 5686 5687 5687
5640 5640 5641 5642 5642 5643 5644 5645 5646 5648 5649 5650 5651 5652 5654 5655 5657 5657 5658 5659 5659 5660 5660 5662 5662 5662 5663 5663 5663 5663 5663 5663 5664 5665 5666 5667 5668 5668 5669 5670 5672 5673 5674
5629 5630 5631 5632 5632 5633 5633 5634 5636 5637 5638 5639 5640 5641 5642 5643 5644 5645 5646 5647 5647 5647 5647 5648 5649 5649 5649 5649 5649 5650 5649 5649 5650 5650 5651 5652 5653 5654 5655 5656 5657 5658 5659
5619 5620 5621 5621 5622 5622 5623 5624 5625 5627 5627 5628 5629 5630 5631 5631 5632 5633 5634 5634 5634 5634 5634 5635 5636 5636 5636 5636 5636 5636 5636 5636 5636 5636 5636 5637 5637 5638 5640 5641 5643 5644 5645
5609 5609 5610 5611 5611 5612 5613 5614 5615 5616 5617 5617 5618 5619 5619 5619 5620 5621 5621 5621 5621 5622 5622 5622 5623 5623 5623 5623 5623 5622 5622 5622 5622 5622 5622 5623 5623 5624 5625 5626 5628 5629 5630
5598 5599 5600 5601 5601 5602 5603 5603 5604 5605 5606 5606 5607 5607 5608 5608 5608 5608 5608 5609 5609 5609 5609 5609 5610 5610 5610 5609 5609 5608 5609 5609 5610 5609 5609 5609 5609 5610 5610 5611 5613 5614 5615
5587 5588 5589 5590 5590 5591 5591 5592 5592 5593 5594 5594 5595 5595 5596 5596 5596 5596 5596 5596 5596 5596 5596 5597 5597 5597 5597 5596 5596 5596 5595 5595 5596 5596 5595 5596 5595 5596 5596 5597 5598 5599 5600
5576 5577 5578 5578 5579 5579 5580 5580 5581 5581 5582 5582 5583 5583 5583 5583 5583 5583 5583 5583 5583 5583 5583 5583 5584 5584 5583 5582 5582 5582 5582 5582 5583 5582 5582 5583 5583 5582 5582 5582 5583 5584 5584
5565 5566 5566 5567 5567 5568 5568 5568 5569 5569 5570 5571 5571 5571 5571 5571 5571 5571 5571 5571 5571 5571 5570 5570 5570 5570 5569 5569 5569 5568 5569 5569 5570 5570 5569 5569 5569 5569 5568 5568 5568 5568 5569
5554 5554 5555 5555 5556 5556 5556 5556 5557 5558 5559 5559 5559 5559 5559 5559 5559 5558 5558 5558 5559 5558 5558 5557 5557 5557 5556 5556 5555 5555 5555 5555 5555 5556 5555 5554 5554 5553 5554 5554 5553 5553 5554